Radiation Dose at Monitoring Post of Fukushima Daini Nuclear Power Station
Date,Time,MP-1(microSv/h),MP-2(microSv/h),MP-3(microSv/h),MP-4(microSv/h),MP-5(microSv/h),MP-6(microSv/h),MP-7(microSv/h),Wind Direction,Wind Velocity(m/s),Rain
2018/09/17,00:00,0.305,0.187,0.306,0.296,0.283,0.152,0.093,south,6.4,No
2018/09/17,00:10,0.306,0.189,0.304,0.295,0.282,0.152,0.094,south,6.3,No
2018/09/17,00:20,0.308,0.190,0.304,0.294,0.279,0.153,0.093,south-southwest,5.7,No
2018/09/17,00:30,0.306,0.188,0.307,0.296,0.283,0.152,0.093,southwest,6.0,No
2018/09/17,00:40,0.305,0.189,0.304,0.296,0.282,0.152,0.094,southwest,4.5,No
2018/09/17,00:50,0.308,0.188,0.304,0.293,0.278,0.154,0.093,southwest,3.9,No
2018/09/17,01:00,0.306,0.189,0.307,0.296,0.283,0.152,0.093,southwest,3.0,No
2018/09/17,01:10,0.306,0.190,0.302,0.296,0.281,0.152,0.093,southwest,3.2,No
2018/09/17,01:20,0.308,0.188,0.306,0.295,0.280,0.153,0.094,west-southwest,3.2,No
2018/09/17,01:30,0.305,0.189,0.305,0.299,0.284,0.152,0.093,south-southwest,2.9,No
2018/09/17,01:40,0.307,0.189,0.303,0.296,0.281,0.153,0.094,south-southwest,3.6,No
2018/09/17,01:50,0.308,0.187,0.305,0.294,0.279,0.152,0.093,southwest,3.5,No
2018/09/17,02:00,0.306,0.190,0.305,0.297,0.284,0.152,0.093,south-southwest,2.7,No
2018/09/17,02:10,0.307,0.189,0.303,0.294,0.282,0.153,0.093,south,2.5,No
2018/09/17,02:20,0.308,0.189,0.307,0.294,0.280,0.153,0.093,south-southwest,3.4,No
2018/09/17,02:30,0.304,0.189,0.305,0.297,0.284,0.152,0.093,southwest,2.9,No
2018/09/17,02:40,0.308,0.189,0.304,0.295,0.282,0.153,0.093,south-southwest,3.2,No
2018/09/17,02:50,0.307,0.190,0.306,0.296,0.280,0.154,0.094,southwest,3.5,No
2018/09/17,03:00,0.305,0.188,0.304,0.296,0.284,0.151,0.094,southwest,2.9,No
2018/09/17,03:10,0.307,0.189,0.306,0.294,0.281,0.153,0.094,south-southwest,2.2,No
2018/09/17,03:20,0.306,0.189,0.306,0.296,0.281,0.152,0.093,southwest,2.2,No
2018/09/17,03:30,0.306,0.188,0.302,0.296,0.284,0.152,0.094,south-southwest,2.1,No
2018/09/17,03:40,0.308,0.189,0.305,0.293,0.279,0.154,0.094,south-southwest,2.1,No
2018/09/17,03:50,0.304,0.188,0.305,0.297,0.282,0.152,0.094,south-southwest,3.0,No
2018/09/17,04:00,0.308,0.189,0.303,0.296,0.283,0.153,0.094,south,3.4,No
2018/09/17,04:10,0.306,0.189,0.306,0.294,0.278,0.152,0.093,south,4.5,No
2018/09/17,04:20,0.304,0.189,0.305,0.296,0.283,0.152,0.094,south,4.5,No
2018/09/17,04:30,0.308,0.189,0.307,0.295,0.283,0.152,0.094,south-southwest,3.6,No
2018/09/17,04:40,0.307,0.189,0.306,0.294,0.279,0.153,0.092,south-southwest,1.8,No
2018/09/17,04:50,0.305,0.189,0.302,0.297,0.283,0.152,0.094,southwest,0.7,No
2018/09/17,05:00,0.308,0.190,0.307,0.294,0.283,0.154,0.094,north-northwest,1.0,No
2018/09/17,05:10,0.305,0.188,0.306,0.295,0.279,0.153,0.093,north,3.7,No
2018/09/17,05:20,0.306,0.190,0.304,0.297,0.283,0.152,0.095,north,6.8,No
2018/09/17,05:30,0.309,0.190,0.308,0.295,0.283,0.154,0.095,north,5.1,No
2018/09/17,05:40,0.305,0.189,0.306,0.296,0.280,0.153,0.093,north,4.8,No
2018/09/17,05:50,0.308,0.191,0.305,0.297,0.283,0.153,0.095,north,4.2,No
2018/09/17,06:00,0.309,0.189,0.307,0.294,0.282,0.153,0.094,north,6.4,No
2018/09/17,06:10,0.306,0.189,0.304,0.297,0.280,0.153,0.093,north,7.1,No
2018/09/17,06:20,0.307,0.189,0.305,0.295,0.283,0.151,0.094,north,8.3,No
2018/09/17,06:30,0.308,0.187,0.306,0.293,0.281,0.152,0.093,north,7.7,No
2018/09/17,06:40,0.304,0.189,0.304,0.296,0.280,0.152,0.093,north,7.5,No
2018/09/17,06:50,0.308,0.189,0.305,0.296,0.282,0.151,0.094,north,8.1,No
2018/09/17,07:00,0.308,0.188,0.307,0.293,0.281,0.152,0.093,north,7.7,No
2018/09/17,07:10,0.305,0.189,0.305,0.296,0.278,0.153,0.093,north,7.9,No
2018/09/17,07:20,0.306,0.189,0.304,0.296,0.282,0.152,0.093,north-northeast,7.4,No
2018/09/17,07:30,0.309,0.188,0.306,0.293,0.282,0.151,0.093,north-northeast,8.4,No
2018/09/17,07:40,0.304,0.188,0.305,0.295,0.279,0.153,0.093,north,7.0,No
2018/09/17,07:50,0.305,0.189,0.304,0.296,0.279,0.153,0.092,north-northeast,7.9,No
2018/09/17,08:00,0.308,0.188,0.306,0.293,0.282,0.151,0.093,north-northeast,8.2,No
2018/09/17,08:10,0.306,0.187,0.304,0.292,0.281,0.151,0.093,north-northeast,8.1,No
2018/09/17,08:20,0.305,0.188,0.301,0.294,0.278,0.153,0.092,north-northeast,7.4,No
2018/09/17,08:30,0.309,0.189,0.306,0.296,0.279,0.153,0.093,northeast,6.8,No
2018/09/17,08:40,0.308,0.188,0.306,0.294,0.282,0.152,0.092,north-northeast,5.3,No
2018/09/17,08:50,0.305,0.187,0.304,0.292,0.282,0.151,0.094,northeast,5.0,No
2018/09/17,09:00,0.304,0.187,0.302,0.292,0.280,0.152,0.094,northeast,5.8,No
2018/09/17,09:10,0.308,0.187,0.307,0.292,0.278,0.153,0.093,northeast,4.5,No
2018/09/17,09:20,0.309,0.189,0.305,0.291,0.279,0.153,0.093,north-northeast,5.9,No
2018/09/17,09:30,0.306,0.190,0.304,0.292,0.279,0.152,0.092,north-northeast,4.6,No
2018/09/17,09:40,0.304,0.189,0.303,0.292,0.279,0.152,0.092,north-northeast,5.2,No
2018/09/17,09:50,0.305,0.188,0.307,0.293,0.278,0.152,0.094,north-northeast,5.6,No
2018/09/17,10:00,0.308,0.188,0.307,0.293,0.280,0.152,0.093,north-northeast,4.1,No
2018/09/17,10:10,0.309,0.187,0.303,0.297,0.284,0.152,0.093,northeast,3.4,No
2018/09/17,10:20,0.307,0.188,0.302,0.296,0.284,0.151,0.093,northeast,4.2,No
2018/09/17,10:30,0.305,0.189,0.305,0.295,0.281,0.152,0.092,northeast,4.5,No
2018/09/17,10:40,0.305,0.189,0.307,0.294,0.280,0.152,0.093,north,2.9,No
2018/09/17,10:50,0.310,0.187,0.303,0.295,0.281,0.153,0.094,north,3.1,No
2018/09/17,11:00,0.308,0.187,0.301,0.298,0.284,0.152,0.093,north,3.9,No
2018/09/17,11:10,0.305,0.188,0.305,0.297,0.283,0.152,0.092,north-northeast,2.2,No
2018/09/17,11:20,0.304,0.190,0.306,0.294,0.281,0.152,0.092,north-northeast,1.9,No
2018/09/17,11:30,0.310,0.189,0.305,0.292,0.280,0.152,0.093,northeast,3.3,No
2018/09/17,11:40,0.309,0.188,0.303,0.293,0.279,0.152,0.094,northeast,3.5,No
2018/09/17,11:50,0.307,0.188,0.303,0.293,0.278,0.153,0.093,east-northeast,2.6,No
2018/09/17,12:00,0.305,0.187,0.301,0.293,0.278,0.152,0.093,northeast,3.2,No
2018/09/17,12:10,0.306,0.186,0.302,0.293,0.278,0.152,0.093,northeast,4.0,No
2018/09/17,12:20,0.305,0.188,0.304,0.295,0.280,0.153,0.093,east-northeast,2.6,No
2018/09/17,12:30,0.307,0.189,0.303,0.294,0.281,0.154,0.093,east-northeast,3.2,No
2018/09/17,12:40,0.305,0.188,0.304,0.295,0.281,0.154,0.093,northeast,3.2,No
2018/09/17,12:50,0.305,0.188,0.307,0.295,0.282,0.154,0.093,east-northeast,3.4,No
2018/09/17,13:00,0.306,0.189,0.305,0.296,0.282,0.154,0.093,east-northeast,2.9,No
2018/09/17,13:10,0.307,0.189,0.305,0.296,0.281,0.153,0.093,northeast,4.2,No
2018/09/17,13:20,0.305,0.189,0.305,0.295,0.282,0.153,0.094,northeast,3.8,No
2018/09/17,13:30,0.305,0.189,0.305,0.294,0.281,0.154,0.092,north-northeast,5.4,No
2018/09/17,13:40,0.303,0.189,0.304,0.295,0.280,0.153,0.093,north-northeast,5.7,No
2018/09/17,13:50,0.306,0.188,0.304,0.294,0.281,0.153,0.092,northeast,3.7,No
2018/09/17,14:00,0.310,0.188,0.303,0.294,0.280,0.153,0.093,north-northeast,3.6,No
2018/09/17,14:10,0.310,0.189,0.302,0.294,0.280,0.153,0.093,north-northeast,4.0,No
2018/09/17,14:20,0.308,0.188,0.303,0.295,0.281,0.153,0.093,northeast,2.5,No
2018/09/17,14:30,0.305,0.188,0.304,0.299,0.279,0.154,0.092,east-northeast,2.7,No
2018/09/17,14:40,0.304,0.188,0.307,0.298,0.280,0.154,0.093,north-northeast,2.7,No
2018/09/17,14:50,0.306,0.188,0.303,0.295,0.280,0.153,0.094,east-northeast,2.3,No
2018/09/17,15:00,0.305,0.188,0.303,0.295,0.281,0.153,0.094,north-northeast,2.5,No
2018/09/17,15:10,0.306,0.188,0.305,0.294,0.281,0.153,0.093,north,3.1,No
2018/09/17,15:20,0.306,0.189,0.308,0.299,0.281,0.154,0.093,north,2.7,No
2018/09/17,15:30,0.304,0.191,0.309,0.299,0.280,0.153,0.094,north-northeast,2.5,No
2018/09/17,15:40,0.306,0.190,0.305,0.295,0.280,0.154,0.094,north,1.9,No
2018/09/17,15:50,0.310,0.189,0.304,0.296,0.281,0.153,0.093,northeast,1.2,No
2018/09/17,16:00,0.310,0.188,0.309,0.298,0.284,0.154,0.093,northeast,1.2,No
2018/09/17,16:10,0.307,0.190,0.307,0.298,0.285,0.153,0.093,north,1.7,No
2018/09/17,16:20,0.305,0.191,0.305,0.297,0.282,0.153,0.093,north,1.5,No
2018/09/17,16:30,0.308,0.188,0.304,0.295,0.279,0.152,0.092,north,0.7,No
2018/09/17,16:40,0.310,0.190,0.308,0.297,0.283,0.153,0.094,north,1.2,No
2018/09/17,16:50,0.306,0.191,0.307,0.298,0.284,0.154,0.094,-,CALM,No
2018/09/17,17:00,0.306,0.188,0.305,0.295,0.283,0.153,0.095,north-northeast,1.1,No
2018/09/17,17:10,0.310,0.189,0.306,0.297,0.279,0.151,0.094,northeast,1.7,No
2018/09/17,17:20,0.309,0.190,0.307,0.299,0.282,0.154,0.094,north-northeast,1.9,No
2018/09/17,17:30,0.306,0.189,0.304,0.295,0.285,0.153,0.094,northeast,1.0,No
2018/09/17,17:40,0.309,0.190,0.308,0.296,0.282,0.153,0.092,north,0.8,No
2018/09/17,17:50,0.308,0.191,0.305,0.298,0.281,0.153,0.094,-,CALM,No
2018/09/17,18:00,0.306,0.188,0.304,0.295,0.286,0.154,0.094,north-northeast,1.1,No
2018/09/17,18:10,0.310,0.190,0.308,0.298,0.282,0.153,0.093,northeast,0.9,No
2018/09/17,18:20,0.309,0.191,0.306,0.298,0.281,0.154,0.094,northeast,1.2,No
2018/09/17,18:30,0.307,0.190,0.306,0.294,0.285,0.154,0.093,northeast,1.2,No
2018/09/17,18:40,0.311,0.189,0.307,0.299,0.281,0.153,0.092,north-northeast,1.0,No
2018/09/17,18:50,0.308,0.189,0.305,0.296,0.283,0.154,0.094,-,CALM,No
2018/09/17,19:00,0.308,0.189,0.308,0.295,0.283,0.152,0.093,-,CALM,No
2018/09/17,19:10,0.309,0.188,0.306,0.297,0.280,0.154,0.094,-,CALM,No
2018/09/17,19:20,0.307,0.190,0.306,0.295,0.283,0.154,0.093,north-northwest,1.0,No
2018/09/17,19:30,0.310,0.190,0.309,0.298,0.282,0.153,0.094,west-northwest,0.7,No
2018/09/17,19:40,0.310,0.190,0.305,0.296,0.281,0.154,0.094,north-northwest,0.9,No
2018/09/17,19:50,0.307,0.189,0.308,0.297,0.284,0.152,0.093,north,1.2,No
2018/09/17,20:00,0.310,0.190,0.307,0.298,0.281,0.154,0.094,north-northwest,0.9,No
2018/09/17,20:10,0.308,0.190,0.307,0.295,0.283,0.153,0.094,north-northwest,0.6,No
2018/09/17,20:20,0.310,0.188,0.309,0.299,0.282,0.153,0.094,north-northwest,1.2,No
2018/09/17,20:30,0.308,0.191,0.305,0.297,0.281,0.153,0.094,north-northwest,2.6,No
2018/09/17,20:40,0.307,0.189,0.309,0.297,0.283,0.152,0.094,north-northwest,3.8,No
2018/09/17,20:50,0.310,0.189,0.306,0.299,0.281,0.153,0.094,north-northwest,2.7,No
2018/09/17,21:00,0.308,0.189,0.308,0.295,0.285,0.153,0.093,north,2.0,No
2018/09/17,21:10,0.311,0.189,0.307,0.298,0.282,0.152,0.093,north,2.1,No
2018/09/17,21:20,0.308,0.190,0.307,0.296,0.283,0.154,0.093,north,2.1,No
2018/09/17,21:30,0.307,0.190,0.308,0.296,0.285,0.152,0.094,north,3.8,No
2018/09/17,21:40,0.311,0.190,0.305,0.297,0.282,0.154,0.095,north,4.1,No
2018/09/17,21:50,0.307,0.189,0.308,0.296,0.283,0.153,0.093,north-northwest,5.4,No
2018/09/17,22:00,0.310,0.189,0.307,0.299,0.283,0.153,0.093,north-northwest,3.4,No
2018/09/17,22:10,0.309,0.189,0.306,0.296,0.280,0.153,0.094,northwest,2.6,No
2018/09/17,22:20,0.307,0.190,0.309,0.298,0.284,0.152,0.093,west-northwest,2.8,No
2018/09/17,22:30,0.309,0.190,0.305,0.297,0.282,0.154,0.094,west-northwest,2.8,No
2018/09/17,22:40,0.307,0.189,0.309,0.296,0.282,0.153,0.094,west-northwest,3.0,No
2018/09/17,22:50,0.310,0.191,0.306,0.298,0.283,0.154,0.094,west-northwest,3.1,No
2018/09/17,23:00,0.307,0.190,0.307,0.296,0.281,0.153,0.094,northeast,0.6,No
2018/09/17,23:10,0.308,0.191,0.308,0.298,0.284,0.153,0.094,-,CALM,No
2018/09/17,23:20,0.310,0.189,0.305,0.296,0.282,0.154,0.094,-,CALM,No
2018/09/17,23:30,0.307,0.190,0.308,0.295,0.282,0.153,0.093,northwest,2.0,No
2018/09/17,23:40,0.309,0.190,0.307,0.297,0.283,0.153,0.094,north-northwest,1.2,No
2018/09/17,23:50,0.309,0.190,0.309,0.295,0.280,0.153,0.093,north,0.6,No
